| time (UTC) | temp F | wind direction | speed knots | gust knots | rain 1hr in | rain 24hr in | rain mn in | humidity % | barometer mb |
| 20260506103506 | 43 | 95 | 7.0 | 21.7 | 0.00 | 0.61 | 0.40 | 99 | 1002.5 |
| 20260506103007 | 43 | 89 | 9.6 | 21.7 | 0.00 | 0.61 | 0.40 | 99 | 1002.5 |
| 20260506102505 | 43 | 76 | 9.6 | 18.2 | 0.00 | 0.61 | 0.40 | 99 | 1002.9 |
| 20260506102006 | 43 | 73 | 8.7 | 18.2 | 0.00 | 0.61 | 0.40 | 99 | 1002.7 |
| 20260506101505 | 43 | 69 | 6.1 | 18.2 | 0.00 | 0.61 | 0.40 | 99 | 1002.6 |
| 20260506101006 | 43 | 76 | 13.9 | 18.2 | 0.00 | 0.61 | 0.40 | 99 | 1002.5 |
| 20260506100505 | 43 | 83 | 9.6 | 14.8 | 0.00 | 0.61 | 0.40 | 99 | 1002.5 |
| 20260506095506 | 42 | 78 | 3.5 | 17.4 | 0.01 | 0.61 | 0.40 | 99 | 1002.5 |
| 20260506095005 | 42 | 74 | 6.1 | 17.4 | 0.02 | 0.61 | 0.40 | 99 | 1002.5 |
| 20260506094506 | 42 | 79 | 3.5 | 20.0 | 0.04 | 0.61 | 0.40 | 99 | 1002.6 |
| 20260506094005 | 42 | 88 | 7.0 | 20.0 | 0.06 | 0.63 | 0.40 | 99 | 1002.6 |
| 20260506093506 | 42 | 97 | 3.5 | 15.6 | 0.07 | 0.63 | 0.40 | 99 | 1002.6 |
| 20260506093005 | 42 | 97 | 7.8 | 15.6 | 0.07 | 0.63 | 0.40 | 99 | 1002.2 |
| 20260506092506 | 42 | 57 | 3.5 | 15.6 | 0.07 | 0.63 | 0.40 | 99 | 1002.5 |
| 20260506092005 | 42 | 46 | 8.7 | 15.6 | 0.08 | 0.63 | 0.40 | 99 | 1002.2 |
| 20260506091505 | 42 | 45 | 5.2 | 20.9 | 0.08 | 0.63 | 0.40 | 99 | 1002.3 |
| 20260506091005 | 42 | 56 | 7.8 | 20.9 | 0.09 | 0.63 | 0.40 | 99 | 1001.9 |
| 20260506090505 | 42 | 80 | 4.3 | 19.1 | 0.09 | 0.64 | 0.40 | 99 | 1001.7 |
| 20260506090005 | 42 | 76 | 1.7 | 19.1 | 0.09 | 0.64 | 0.40 | 99 | 1002.4 |
| 20260506085005 | 42 | 84 | 7.8 | 17.4 | 0.07 | 0.61 | 0.38 | 99 | 1002.3 |
| 20260506084506 | 42 | 79 | 6.1 | 14.8 | 0.07 | 0.60 | 0.37 | 99 | 1002.1 |
| 20260506084005 | 42 | 61 | 3.5 | 13.0 | 0.05 | 0.58 | 0.34 | 99 | 1002.7 |
| 20260506083506 | 42 | 67 | 5.2 | 14.8 | 0.04 | 0.57 | 0.33 | 99 | 1002.4 |
| 20260506083005 | 42 | 69 | 2.6 | 14.8 | 0.05 | 0.58 | 0.33 | 99 | 1002.3 |
| 20260506082505 | 42 | 72 | 5.2 | 11.3 | 0.05 | 0.58 | 0.33 | 99 | 1002.5 |
| 20260506082005 | 42 | 86 | 3.5 | 11.3 | 0.04 | 0.57 | 0.32 | 99 | 1002.7 |
| 20260506081505 | 42 | 76 | 3.5 | 12.2 | 0.04 | 0.57 | 0.32 | 99 | 1002.4 |
| 20260506081006 | 42 | 59 | 3.5 | 19.1 | 0.02 | 0.57 | 0.31 | 99 | 1002.4 |
| 20260506080505 | 42 | 50 | 1.7 | 19.1 | 0.02 | 0.57 | 0.31 | 99 | 1002.4 |
| 20260506073505 | 42 | 71 | 5.2 | 15.6 | 0.01 | 0.56 | 0.30 | 99 | 1002.8 |
| 20260506073006 | 42 | 62 | 5.2 | 13.9 | 0.00 | 0.54 | 0.28 | 99 | 1002.6 |
| 20260506072006 | 42 | 71 | 5.2 | 14.8 | 0.00 | 0.58 | 0.28 | 99 | 1002.6 |
| 20260506071505 | 42 | 65 | 3.5 | 9.6 | 0.01 | 0.59 | 0.28 | 99 | 1002.5 |
| 20260506071006 | 42 | 72 | 1.7 | 13.0 | 0.01 | 0.60 | 0.28 | 99 | 1002.7 |
| 20260506070505 | 42 | 70 | 1.7 | 13.0 | 0.01 | 0.61 | 0.28 | 99 | 1002.6 |
| 20260506062505 | 41 | 63 | 4.3 | 13.0 | 0.04 | 0.67 | 0.28 | 99 | 1002.6 |
| 20260506062006 | 41 | 63 | 7.0 | 12.2 | 0.04 | 0.67 | 0.28 | 99 | 1002.5 |
| 20260506061506 | 42 | 64 | 7.0 | 12.2 | 0.04 | 0.66 | 0.27 | 99 | 1002.3 |
| 20260506061006 | 42 | 56 | 6.1 | 13.0 | 0.04 | 0.66 | 0.27 | 99 | 1002.7 |
| 20260506060506 | 42 | 54 | 3.5 | 13.0 | 0.04 | 0.67 | 0.27 | 99 | 1002.7 |
| 20260506051006 | 43 | 65 | 3.5 | 14.8 | 0.05 | 0.65 | 0.24 | 99 | 1002.9 |
| 20260506045005 | 43 | 85 | 5.2 | 13.9 | 0.04 | 0.64 | 0.22 | 99 | 1003.1 |
| 20260506044506 | 43 | 73 | 4.3 | 13.9 | 0.02 | 0.63 | 0.21 | 99 | 1003.1 |
| 20260506044006 | 43 | 78 | 6.1 | 12.2 | 0.01 | 0.61 | 0.20 | 99 | 1003.1 |
| 20260506043506 | 43 | 82 | 3.5 | 9.6 | 0.02 | 0.61 | 0.20 | 99 | 1003.3 |
| 20260506043005 | 43 | 79 | 5.2 | 13.9 | 0.06 | 0.61 | 0.20 | 99 | 1003.3 |
| 20260506042506 | 43 | 75 | 3.5 | 13.9 | 0.06 | 0.60 | 0.19 | 99 | 1003.2 |
| 20260506042005 | 44 | 77 | 3.5 | 9.6 | 0.06 | 0.60 | 0.19 | 99 | 1003.5 |
| 20260506041506 | 43 | 83 | 3.5 | 9.6 | 0.06 | 0.60 | 0.19 | 99 | 1003.1 |
| 20260506041005 | 43 | 80 | 4.3 | 9.6 | 0.06 | 0.60 | 0.19 | 99 | 1003.5 |
| 20260506040506 | 43 | 76 | 3.5 | 11.3 | 0.07 | 0.60 | 0.19 | 99 | 1003.2 |
| 20260506040006 | 44 | 75 | 3.5 | 11.3 | 0.08 | 0.60 | 0.19 | 99 | 1003.6 |
| 20260506035505 | 44 | 84 | 2.6 | 12.2 | 0.09 | 0.60 | 0.19 | 99 | 1003.3 |
| 20260506035006 | 44 | 82 | 1.7 | 12.2 | 0.11 | 0.60 | 0.19 | 99 | 1003.4 |
| 20260506034506 | 44 | 85 | 1.7 | 11.3 | 0.11 | 0.60 | 0.19 | 99 | 1003.4 |
| 20260506034005 | 44 | 95 | 2.6 | 11.3 | 0.11 | 0.60 | 0.19 | 99 | 1003.4 |
| 20260506033506 | 44 | 91 | 7.0 | 11.3 | 0.09 | 0.59 | 0.18 | 99 | 1003.3 |
| 20260506033006 | 44 | 90 | 4.3 | 11.3 | 0.06 | 0.56 | 0.14 | 99 | 1003.5 |
| 20260506032505 | 44 | 89 | 3.5 | 11.3 | 0.05 | 0.54 | 0.13 | 99 | 1003.5 |
| 20260506032005 | 44 | 85 | 1.7 | 9.6 | 0.05 | 0.54 | 0.13 | 99 | 1003.5 |
| 20260506031505 | 44 | 85 | 3.5 | 12.2 | 0.05 | 0.54 | 0.13 | 99 | 1003.6 |
| 20260506031006 | 44 | 90 | 2.6 | 12.2 | 0.05 | 0.54 | 0.13 | 99 | 1003.7 |
| 20260506030505 | 44 | 87 | 3.5 | 11.3 | 0.05 | 0.53 | 0.12 | 99 | 1003.7 |
| 20260506030005 | 44 | 89 | 3.5 | 7.0 | 0.04 | 0.52 | 0.11 | 99 | 1003.9 |
| 20260506025506 | 44 | 91 | 3.5 | 11.3 | 0.02 | 0.51 | 0.09 | 99 | 1003.7 |
| 20260506025006 | 44 | 87 | 1.7 | 11.3 | 0.01 | 0.50 | 0.08 | 99 | 1004.2 |
| 20260506024505 | 44 | 82 | 3.5 | 11.3 | 0.01 | 0.50 | 0.08 | 99 | 1004.1 |
| 20260506024006 | 44 | 77 | 5.2 | 9.6 | 0.01 | 0.50 | 0.08 | 99 | 1004.0 |
| 20260506023505 | 44 | 84 | 2.6 | 9.6 | 0.01 | 0.50 | 0.08 | 99 | 1004.1 |
| 20260506023006 | 44 | 90 | 2.6 | 7.0 | 0.01 | 0.50 | 0.08 | 99 | 1004.0 |
| 20260506022505 | 44 | 77 | 3.5 | 13.9 | 0.01 | 0.50 | 0.08 | 99 | 1004.3 |
| 20260506022005 | 44 | 73 | 3.5 | 13.9 | 0.01 | 0.50 | 0.08 | 99 | 1004.4 |
| 20260506021506 | 44 | 88 | 3.5 | 11.3 | 0.01 | 0.50 | 0.08 | 99 | 1004.3 |
| 20260506021005 | 44 | 91 | 2.6 | 9.6 | 0.01 | 0.50 | 0.08 | 99 | 1004.3 |
| 20260506020506 | 44 | 67 | 3.5 | 9.6 | 0.00 | 0.48 | 0.07 | 99 | 1004.4 |
| 20260506020005 | 44 | 65 | 2.6 | 9.6 | 0.00 | 0.48 | 0.07 | 99 | 1004.5 |
| 20260506015506 | 44 | 76 | 2.6 | 7.0 | 0.00 | 0.48 | 0.07 | 99 | 1004.2 |
| 20260506015006 | 44 | 88 | 3.5 | 7.0 | 0.00 | 0.48 | 0.07 | 99 | 1004.4 |
| 20260506014505 | 44 | 90 | 1.7 | 7.0 | 0.00 | 0.48 | 0.07 | 99 | 1004.5 |
| 20260506014006 | 44 | 94 | 3.5 | 5.2 | 0.00 | 0.48 | 0.07 | 99 | 1004.5 |
| 20260506013506 | 44 | 75 | 1.7 | 7.0 | 0.00 | 0.48 | 0.07 | 99 | 1004.5 |
| 20260506013005 | 44 | 61 | 0.9 | 7.0 | 0.00 | 0.48 | 0.07 | 99 | 1004.5 |
| 20260506012506 | 44 | 71 | 2.6 | 9.6 | 0.00 | 0.48 | 0.07 | 99 | 1004.6 |
| 20260506012005 | 44 | 77 | 2.6 | 9.6 | 0.00 | 0.48 | 0.07 | 99 | 1004.7 |
| 20260506011505 | 44 | 74 | 3.5 | 9.6 | 0.00 | 0.48 | 0.07 | 99 | 1004.8 |
| 20260506011006 | 44 | 79 | 1.7 | 7.0 | 0.00 | 0.48 | 0.07 | 99 | 1004.7 |
| 20260506010505 | 44 | 85 | 2.6 | 7.0 | 0.01 | 0.48 | 0.07 | 99 | 1004.8 |
| 20260506010006 | 44 | 84 | 3.5 | 7.0 | 0.01 | 0.48 | 0.07 | 99 | 1004.8 |
| 20260506005505 | 44 | 81 | 1.7 | 7.0 | 0.04 | 0.48 | 0.07 | 99 | 1004.9 |
| 20260506005006 | 44 | 80 | 1.7 | 7.8 | 0.04 | 0.48 | 0.07 | 99 | 1005.1 |
| 20260506003505 | 44 | 82 | 3.5 | 9.6 | 0.07 | 0.48 | 0.07 | 99 | 1005.2 |
| 20260506003005 | 44 | 80 | 3.5 | 7.0 | 0.07 | 0.48 | 0.07 | 99 | 1005.1 |
| 20260506002506 | 44 | 83 | 1.7 | 7.0 | 0.07 | 0.48 | 0.07 | 99 | 1005.1 |
| 20260506001506 | 44 | 86 | 3.5 | 7.8 | 0.07 | 0.48 | 0.07 | 99 | 1005.2 |
| 20260506001005 | 44 | 77 | 3.5 | 7.8 | 0.07 | 0.48 | 0.07 | 99 | 1005.1 |
| 20260506000505 | 44 | 77 | 1.7 | 3.5 | 0.06 | 0.47 | 0.06 | 99 | 1005.3 |
| 20260505235505 | 44 | 84 | 1.7 | 7.0 | 0.04 | 0.45 | 0.04 | 99 | 1005.5 |
| 20260505235005 | 44 | 86 | 1.7 | 5.2 | 0.04 | 0.45 | 0.04 | 99 | 1005.5 |
| 20260505234506 | 44 | 87 | 1.7 | 5.2 | 0.02 | 0.44 | 0.02 | 99 | 1005.6 |
| 20260505234006 | 44 | 82 | 1.7 | 5.2 | 0.00 | 0.41 | 0.00 | 99 | 1005.6 |
| 20260505233505 | 44 | 85 | 1.7 | 5.2 | 0.00 | 0.41 | 0.00 | 99 | 1005.6 |
| 20260505233005 | 44 | 90 | 1.7 | 5.2 | 0.00 | 0.41 | 0.00 | 99 | 1005.5 |
| 20260505232506 | 44 | 83 | 1.7 | 5.2 | 0.00 | 0.41 | 0.00 | 99 | 1005.7 |
| 20260505231506 | 44 | 94 | 1.7 | 5.2 | 0.00 | 0.41 | 0.00 | 99 | 1005.8 |
| 20260505231005 | 44 | 91 | 1.7 | 3.5 | 0.00 | 0.41 | 0.00 | 99 | 1006.0 |
| 20260505230506 | 44 | 90 | 1.7 | 5.2 | 0.00 | 0.41 | 0.00 | 99 | 1005.9 |
| 20260505230005 | 44 | 90 | 1.7 | 5.2 | 0.00 | 0.41 | 0.00 | 99 | 1005.8 |
| 20260505225505 | 44 | 91 | 1.7 | 6.1 | 0.00 | 0.41 | 0.00 | 99 | 1005.8 |
| 20260505225005 | 44 | 102 | 2.6 | 6.1 | 0.00 | 0.41 | 0.00 | 99 | 1005.6 |
| 20260505224506 | 44 | 109 | 2.6 | 6.1 | 0.00 | 0.41 | 0.00 | 99 | 1006.0 |
| 20260505224005 | 44 | 97 | 1.7 | 5.2 | 0.00 | 0.41 | 0.00 | 99 | 1006.1 |
| 20260505223506 | 44 | 89 | 1.7 | 5.2 | 0.00 | 0.41 | 0.00 | 99 | 1005.9 |
| 20260505223006 | 44 | 95 | 2.6 | 5.2 | 0.00 | 0.41 | 0.00 | 99 | 1005.7 |
| 20260505222505 | 44 | 95 | 1.7 | 5.2 | 0.01 | 0.41 | 0.00 | 99 | 1005.9 |
| 20260505222005 | 44 | 86 | 1.7 | 5.2 | 0.01 | 0.41 | 0.00 | 99 | 1006.0 |
| 20260505221505 | 44 | 84 | 0.9 | 3.5 | 0.02 | 0.41 | 0.00 | 99 | 1005.9 |
| 20260505221006 | 44 | 81 | 1.7 | 5.2 | 0.02 | 0.41 | 0.00 | 99 | 1005.9 |
| 20260505220009 | 44 | 89 | 0.9 | 3.5 | 0.02 | 0.41 | 0.00 | 99 | 1006.2 |
| 20260505215506 | 44 | 87 | 1.7 | 3.5 | 0.02 | 0.41 | 0.41 | 99 | 1006.1 |
| 20260505215005 | 44 | 83 | 1.7 | 9.6 | 0.02 | 0.41 | 0.41 | 99 | 1006.1 |
| 20260505214506 | 44 | 81 | 1.7 | 9.6 | 0.02 | 0.41 | 0.41 | 99 | 1006.1 |
| 20260505213506 | 44 | 76 | 3.5 | 7.0 | 0.06 | 0.41 | 0.41 | 99 | 1006.2 |
| 20260505213005 | 44 | 79 | 0.9 | 7.0 | 0.07 | 0.41 | 0.41 | 99 | 1006.4 |
| 20260505212506 | 44 | 89 | 2.6 | 7.8 | 0.06 | 0.40 | 0.40 | 99 | 1006.3 |
| 20260505211505 | 44 | 86 | 2.6 | 6.1 | 0.05 | 0.39 | 0.39 | 99 | 1006.3 |
| 20260505211006 | 44 | 85 | 0.0 | 7.0 | 0.05 | 0.39 | 0.39 | 99 | 1006.4 |
| 20260505210505 | 44 | 81 | 2.6 | 7.0 | 0.06 | 0.39 | 0.39 | 99 | 1006.5 |
| 20260505210006 | 44 | 85 | 2.6 | 7.8 | 0.06 | 0.39 | 0.39 | 99 | 1006.4 |
| 20260505205505 | 44 | 77 | 1.7 | 9.6 | 0.06 | 0.39 | 0.39 | 99 | 1006.5 |
| 20260505205006 | 44 | 76 | 1.7 | 9.6 | 0.06 | 0.39 | 0.39 | 99 | 1006.5 |
| 20260505204505 | 44 | 80 | 1.7 | 6.1 | 0.06 | 0.39 | 0.39 | 99 | 1006.5 |
| 20260505204006 | 44 | 73 | 2.6 | 6.1 | 0.05 | 0.38 | 0.38 | 99 | 1006.6 |
| 20260505203505 | 44 | 78 | 2.6 | 6.1 | 0.04 | 0.35 | 0.35 | 99 | 1006.5 |
| 20260505203006 | 44 | 88 | 3.5 | 5.2 | 0.02 | 0.34 | 0.34 | 99 | 1006.5 |
| 20260505202505 | 44 | 91 | 1.7 | 6.1 | 0.02 | 0.34 | 0.34 | 99 | 1006.4 |
| 20260505201505 | 44 | 92 | 2.6 | 6.1 | 0.04 | 0.34 | 0.34 | 99 | 1006.6 |
| 20260505201006 | 44 | 74 | 3.5 | 6.1 | 0.02 | 0.33 | 0.33 | 99 | 1006.6 |
| 20260505200505 | 44 | 73 | 1.7 | 7.0 | 0.02 | 0.33 | 0.33 | 99 | 1006.4 |
| 20260505200006 | 44 | 83 | 2.6 | 7.0 | 0.02 | 0.33 | 0.33 | 99 | 1006.6 |
| 20260505195006 | 44 | 76 | 3.5 | 7.8 | 0.02 | 0.33 | 0.33 | 99 | 1006.3 |
| 20260505194006 | 44 | 88 | 1.7 | 7.0 | 0.02 | 0.33 | 0.33 | 99 | 1006.0 |
| 20260505193506 | 44 | 92 | 3.5 | 7.0 | 0.01 | 0.32 | 0.32 | 99 | 1006.2 |
| 20260505193006 | 44 | 90 | 1.7 | 6.1 | 0.01 | 0.32 | 0.32 | 99 | 1006.2 |
| 20260505192505 | 44 | 81 | 1.7 | 6.1 | 0.01 | 0.32 | 0.32 | 99 | 1006.5 |
| 20260505192006 | 44 | 80 | 3.5 | 6.1 | 0.02 | 0.32 | 0.32 | 99 | 1006.2 |
| 20260505191505 | 44 | 78 | 1.7 | 6.1 | 0.02 | 0.31 | 0.31 | 99 | 1006.3 |
| 20260505191006 | 44 | 80 | 2.6 | 9.6 | 0.02 | 0.31 | 0.31 | 99 | 1006.3 |
| 20260505190505 | 44 | 80 | 2.6 | 9.6 | 0.02 | 0.31 | 0.31 | 99 | 1006.1 |
| 20260505185505 | 44 | 83 | 2.6 | 7.0 | 0.02 | 0.31 | 0.31 | 99 | 1006.0 |
| 20260505185006 | 44 | 74 | 1.7 | 3.5 | 0.04 | 0.31 | 0.31 | 99 | 1005.9 |
| 20260505184505 | 44 | 75 | 1.7 | 9.6 | 0.04 | 0.31 | 0.31 | 99 | 1006.1 |
| 20260505183505 | 44 | 73 | 2.6 | 7.0 | 0.04 | 0.31 | 0.31 | 99 | 1006.2 |
| 20260505183006 | 44 | 67 | 2.6 | 9.6 | 0.04 | 0.31 | 0.31 | 99 | 1006.1 |
| 20260505182006 | 44 | 78 | 1.7 | 7.0 | 0.02 | 0.30 | 0.30 | 99 | 1006.0 |
| 20260505181505 | 44 | 78 | 2.6 | 6.1 | 0.01 | 0.28 | 0.28 | 99 | 1006.2 |
| 20260505180506 | 44 | 86 | 0.9 | 7.8 | 0.02 | 0.28 | 0.28 | 99 | 1006.1 |
| 20260505180006 | 44 | 84 | 1.7 | 7.8 | 0.02 | 0.28 | 0.28 | 99 | 1006.1 |
| 20260505175505 | 44 | 81 | 2.6 | 7.8 | 0.02 | 0.28 | 0.28 | 99 | 1006.0 |
| 20260505175005 | 44 | 82 | 1.7 | 5.2 | 0.01 | 0.27 | 0.27 | 99 | 1006.1 |
| 20260505174006 | 44 | 75 | 1.7 | 5.2 | 0.01 | 0.27 | 0.27 | 99 | 1006.0 |
| 20260505173506 | 43 | 77 | 1.7 | 5.2 | 0.01 | 0.27 | 0.27 | 99 | 1006.2 |
| 20260505173006 | 44 | 83 | 1.7 | 5.2 | 0.01 | 0.27 | 0.27 | 99 | 1006.1 |
| 20260505172006 | 43 | 78 | 0.9 | 6.1 | 0.01 | 0.27 | 0.27 | 99 | 1006.1 |
| 20260505171506 | 43 | 73 | 1.7 | 6.1 | 0.01 | 0.27 | 0.27 | 99 | 1006.1 |
| 20260505171006 | 43 | 76 | 1.7 | 3.5 | 0.01 | 0.27 | 0.27 | 99 | 1006.1 |
| 20260505170505 | 43 | 76 | 1.7 | 3.5 | 0.00 | 0.26 | 0.26 | 99 | 1006.1 |
| 20260505170006 | 43 | 77 | 1.7 | 5.2 | 0.00 | 0.26 | 0.26 | 99 | 1006.0 |
| 20260505165506 | 43 | 77 | 1.7 | 5.2 | 0.00 | 0.26 | 0.26 | 99 | 1006.1 |
| 20260505165005 | 43 | 74 | 0.9 | 7.8 | 0.00 | 0.26 | 0.26 | 99 | 1005.9 |
| 20260505164506 | 43 | 82 | 1.7 | 7.8 | 0.00 | 0.26 | 0.26 | 99 | 1006.2 |
| 20260505164006 | 43 | 86 | 0.9 | 7.8 | 0.00 | 0.26 | 0.26 | 99 | 1005.8 |
| 20260505163505 | 43 | 74 | 1.7 | 7.8 | 0.00 | 0.26 | 0.26 | 99 | 1006.2 |
| 20260505163007 | 43 | 70 | 2.6 | 7.8 | 0.00 | 0.26 | 0.26 | 99 | 1006.0 |
| 20260505162506 | 43 | 74 | 1.7 | 3.5 | 0.00 | 0.26 | 0.26 | 99 | 1006.1 |
| 20260505162006 | 43 | 83 | 1.7 | 5.2 | 0.00 | 0.26 | 0.26 | 99 | 1006.1 |
| 20260505161505 | 43 | 86 | 1.7 | 7.8 | 0.00 | 0.26 | 0.26 | 99 | 1006.0 |
| 20260505161005 | 43 | 78 | 0.9 | 7.8 | 0.00 | 0.26 | 0.26 | 99 | 1006.4 |
| 20260505160505 | 43 | 77 | 1.7 | 7.0 | 0.00 | 0.26 | 0.26 | 99 | 1006.2 |
| 20260505153006 | 43 | 73 | 1.7 | 7.0 | 0.01 | 0.26 | 0.26 | 99 | 1006.4 |
| 20260505152505 | 43 | 77 | 1.7 | 9.6 | 0.01 | 0.26 | 0.26 | 99 | 1006.4 |
| 20260505152006 | 43 | 79 | 3.5 | 9.6 | 0.01 | 0.26 | 0.26 | 99 | 1006.2 |
| 20260505151506 | 43 | 74 | 1.7 | 9.6 | 0.01 | 0.26 | 0.26 | 99 | 1006.4 |
| 20260505151005 | 43 | 70 | 5.2 | 9.6 | 0.02 | 0.26 | 0.26 | 99 | 1006.4 |
| 20260505150506 | 43 | 81 | 3.5 | 7.0 | 0.02 | 0.26 | 0.26 | 99 | 1006.3 |
| 20260505140506 | 43 | 90 | 0.9 | 5.2 | 0.02 | 0.24 | 0.24 | 99 | 1006.4 |
| 20260505124506 | 42 | 75 | 3.5 | 9.6 | 0.01 | 0.21 | 0.21 | 99 | 1006.8 |
| 20260505124006 | 42 | 72 | 1.7 | 9.6 | 0.01 | 0.21 | 0.21 | 99 | 1006.6 |
| 20260505123505 | 42 | 73 | 3.5 | 9.6 | 0.01 | 0.21 | 0.21 | 99 | 1006.5 |
| 20260505122505 | 42 | 70 | 1.7 | 9.6 | 0.01 | 0.21 | 0.21 | 99 | 1006.9 |
| 20260505121505 | 42 | 68 | 3.5 | 7.0 | 0.00 | 0.20 | 0.20 | 99 | 1006.6 |
| 20260505121005 | 42 | 62 | 1.7 | 5.2 | 0.00 | 0.20 | 0.20 | 99 | 1006.8 |
| 20260505120006 | 42 | 62 | 2.6 | 6.1 | 0.00 | 0.20 | 0.20 | 99 | 1006.8 |
| 20260505115505 | 42 | 57 | 2.6 | 3.5 | 0.00 | 0.20 | 0.20 | 99 | 1006.7 |
| 20260505115006 | 42 | 49 | 1.7 | 3.5 | 0.00 | 0.20 | 0.20 | 99 | 1006.6 |
| 20260505114505 | 42 | 52 | 1.7 | 3.5 | 0.00 | 0.20 | 0.20 | 99 | 1007.0 |
| 20260505114006 | 42 | 61 | 1.7 | 5.2 | 0.00 | 0.20 | 0.20 | 99 | 1006.8 |
| 20260505113006 | 42 | 57 | 1.7 | 5.2 | 0.00 | 0.20 | 0.20 | 99 | 1006.9 |
| 20260505112505 | 42 | 68 | 2.6 | 7.0 | 0.00 | 0.20 | 0.20 | 99 | 1006.8 |
| 20260505112006 | 42 | 77 | 2.6 | 7.0 | 0.00 | 0.20 | 0.20 | 99 | 1006.7 |
| 20260505111505 | 42 | 73 | 1.7 | 7.8 | 0.00 | 0.20 | 0.20 | 99 | 1007.1 |
| 20260505111006 | 42 | 67 | 2.6 | 7.8 | 0.00 | 0.20 | 0.20 | 99 | 1006.9 |
| 20260505110506 | 42 | 68 | 2.6 | 6.1 | 0.00 | 0.20 | 0.20 | 99 | 1007.0 |